TimeMST,TemperatureF,Dew PointF,Humidity,Sea Level PressureIn,VisibilityMPH,Wind Direction,Wind SpeedMPH,Gust SpeedMPH,PrecipitationIn,Events,Conditions,WindDirDegrees,DateUTC
12:53 AM,25.0,21.9,88,30.10,10.0,Calm,Calm,-,N/A,,Clear,0,2011-11-20 07:53:00
1:53 AM,25.0,21.9,88,30.11,10.0,East,4.6,-,N/A,,Clear,100,2011-11-20 08:53:00
2:53 AM,25.0,21.9,88,30.12,8.0,East,5.8,-,N/A,,Clear,100,2011-11-20 09:53:00
3:53 AM,23.0,21.0,92,30.13,7.0,Calm,Calm,-,N/A,,Clear,0,2011-11-20 10:53:00
5:06 AM,21.2,19.4,93,30.10,6.0,East,5.8,-,N/A,,Scattered Clouds,80,2011-11-20 12:06:00
5:21 AM,23.0,19.4,86,30.10,6.0,East,8.1,-,N/A,,Mostly Cloudy,80,2011-11-20 12:21:00
5:53 AM,23.0,21.0,92,30.17,6.0,ESE,8.1,-,N/A,,Overcast,110,2011-11-20 12:53:00
6:03 AM,23.0,21.2,93,30.12,6.0,ESE,9.2,-,N/A,,Overcast,110,2011-11-20 13:03:00
6:38 AM,24.8,21.2,86,30.13,7.0,ESE,4.6,-,N/A,,Overcast,110,2011-11-20 13:38:00
6:53 AM,24.1,21.0,88,30.19,7.0,East,5.8,-,N/A,,Overcast,100,2011-11-20 13:53:00
7:29 AM,24.8,21.2,86,30.14,7.0,ESE,4.6,-,N/A,,Scattered Clouds,110,2011-11-20 14:29:00
7:53 AM,25.0,21.9,88,30.22,7.0,SE,5.8,-,N/A,,Clear,130,2011-11-20 14:53:00
8:53 AM,27.0,21.9,81,30.24,9.0,SE,3.5,-,N/A,,Clear,130,2011-11-20 15:53:00
9:53 AM,30.0,21.9,72,30.22,10.0,ENE,5.8,-,N/A,,Clear,70,2011-11-20 16:53:00
10:53 AM,30.9,21.9,69,30.20,10.0,ENE,6.9,-,N/A,,Clear,70,2011-11-20 17:53:00
11:53 AM,33.1,21.9,64,30.15,10.0,ESE,5.8,-,N/A,,Clear,120,2011-11-20 18:53:00
12:53 PM,36.0,23.0,59,30.11,10.0,ESE,6.9,-,N/A,,Clear,110,2011-11-20 19:53:00
1:53 PM,39.0,23.0,53,30.09,10.0,East,6.9,-,N/A,,Clear,80,2011-11-20 20:53:00
2:53 PM,39.9,23.0,51,30.07,10.0,ENE,10.4,-,N/A,,Clear,70,2011-11-20 21:53:00
3:53 PM,39.0,23.0,53,30.08,10.0,East,13.8,-,N/A,,Clear,90,2011-11-20 22:53:00
4:53 PM,34.0,23.0,64,30.10,10.0,East,10.4,-,N/A,,Clear,90,2011-11-20 23:53:00
5:53 PM,30.9,23.0,72,30.12,10.0,East,6.9,-,N/A,,Clear,90,2011-11-21 00:53:00
6:53 PM,28.9,23.0,78,30.14,10.0,ESE,9.2,-,N/A,,Clear,120,2011-11-21 01:53:00
7:53 PM,28.0,21.9,78,30.15,10.0,East,6.9,-,N/A,,Clear,90,2011-11-21 02:53:00
8:53 PM,26.1,21.0,81,30.15,10.0,ENE,8.1,-,N/A,,Clear,70,2011-11-21 03:53:00
9:53 PM,24.1,21.0,88,30.15,10.0,ENE,9.2,-,N/A,,Clear,70,2011-11-21 04:53:00
10:53 PM,23.0,19.9,88,30.14,9.0,East,11.5,-,N/A,,Clear,90,2011-11-21 05:53:00
11:53 PM,21.9,19.9,92,30.13,8.0,East,6.9,-,N/A,,Clear,90,2011-11-21 06:53:00